• In Uzbekistan
  • List of Countries
  • For 7 days
  • Water Temperature
  • Satellite Maps
  • Weather Map
  • Weather Widgets
  • user-avatar
    Login

    Hourly Weather Islamabad

    Today, 17 July, Wednesday

    Time Temperature Precipitation Wind Pressure Humidity
    00:00 +29°C° 0 mm 4 mps 707 mmHg 75%
    01:00 +29°C° 0 mm 4 mps 707 mmHg 75%
    02:00 +28°C° 0 mm 4 mps 707 mmHg 75%
    03:00 +28°C° 0 mm 3 mps 707 mmHg 76%
    04:00 +28°C° 0 mm 3 mps 707 mmHg 77%
    05:00 +28°C° 0 mm 2 mps 707 mmHg 78%
    06:00 +28°C° 0 mm 2 mps 707 mmHg 74%
    07:00 +29°C° 0 mm 2 mps 707 mmHg 70%
    08:00 +30°C° 0 mm 1 mps 708 mmHg 65%
    09:00 +31°C° 0 mm 2 mps 708 mmHg 61%
    10:00 +32°C° 0 mm 2 mps 708 mmHg 56%
    11:00 +34°C° 0 mm 3 mps 708 mmHg 51%
    12:00 +35°C° 0 mm 3 mps 708 mmHg 48%
    13:00 +36°C° 0 mm 3 mps 708 mmHg 45%
    14:00 +36°C° 0 mm 3 mps 707 mmHg 42%
    15:00 +37°C° 0 mm 3 mps 707 mmHg 42%
    16:00 +37°C° 0 mm 2 mps 707 mmHg 41%
    17:00 +37°C° 0 mm 2 mps 706 mmHg 40%
    18:00 +36°C° 0 mm 2 mps 706 mmHg 43%
    19:00 +35°C° 0 mm 2 mps 706 mmHg 46%
    20:00 +33°C° 0 mm 1 mps 706 mmHg 48%
    21:00 +33°C° 0 mm 1 mps 706 mmHg 50%
    22:00 +32°C° 0 mm 1 mps 706 mmHg 51%
    23:00 +32°C° 0 mm 1 mps 707 mmHg 53%

    Tomorrow, 18 July, Thursday

    Time Temperature Precipitation Wind Pressure Humidity
    00:00 +32°C° 0 mm 1 mps 706 mmHg 54%
    01:00 +31°C° 0 mm 1 mps 706 mmHg 55%
    02:00 +31°C° 0 mm 1 mps 706 mmHg 56%
    03:00 +31°C° 0 mm 2 mps 706 mmHg 56%
    04:00 +31°C° 0 mm 2 mps 706 mmHg 57%
    05:00 +30°C° 0 mm 2 mps 706 mmHg 57%
    06:00 +31°C° 0 mm 2 mps 706 mmHg 55%
    07:00 +32°C° 0 mm 2 mps 707 mmHg 52%
    08:00 +34°C° 0 mm 2 mps 707 mmHg 50%
    09:00 +35°C° 0 mm 2 mps 707 mmHg 48%
    10:00 +36°C° 0 mm 2 mps 707 mmHg 45%
    11:00 +37°C° 0 mm 3 mps 708 mmHg 43%
    12:00 +37°C° 0.1 mm 3 mps 707 mmHg 43%
    13:00 +37°C° 0.1 mm 2 mps 707 mmHg 44%
    14:00 +37°C° 0.1 mm 2 mps 707 mmHg 44%
    15:00 +37°C° 0.1 mm 2 mps 707 mmHg 44%
    16:00 +37°C° 0.1 mm 2 mps 706 mmHg 43%
    17:00 +38°C° 0.1 mm 2 mps 706 mmHg 43%
    18:00 +37°C° 0 mm 2 mps 706 mmHg 46%
    19:00 +36°C° 0 mm 2 mps 706 mmHg 50%
    20:00 +35°C° 0 mm 2 mps 706 mmHg 53%
    21:00 +34°C° 0.1 mm 2 mps 706 mmHg 54%
    22:00 +34°C° 0.1 mm 2 mps 706 mmHg 56%
    23:00 +32°C° 0.1 mm 2 mps 706 mmHg 57%

    Day after tomorrow, 19 July, Friday

    Time Temperature Precipitation Wind Pressure Humidity
    00:00 +32°C° 0.1 mm 2 mps 706 mmHg 58%
    01:00 +32°C° 0.1 mm 2 mps 706 mmHg 59%
    02:00 +31°C° 0.1 mm 2 mps 706 mmHg 59%
    03:00 +31°C° 1.1 mm 2 mps 706 mmHg 62%
    04:00 +30°C° 1.1 mm 2 mps 706 mmHg 64%
    05:00 +30°C° 1.1 mm 2 mps 706 mmHg 66%
    06:00 +31°C° 1.4 mm 2 mps 706 mmHg 64%
    07:00 +31°C° 1.4 mm 2 mps 707 mmHg 62%
    08:00 +32°C° 1.4 mm 2 mps 707 mmHg 59%
    09:00 +34°C° 0.4 mm 2 mps 707 mmHg 56%
    10:00 +36°C° 0.4 mm 2 mps 708 mmHg 52%
    11:00 +37°C° 0.4 mm 3 mps 708 mmHg 48%
    12:00 +37°C° 0.9 mm 2 mps 708 mmHg 46%
    13:00 +38°C° 0.9 mm 2 mps 707 mmHg 44%
    14:00 +39°C° 0.9 mm 1 mps 707 mmHg 43%
    15:00 +38°C° 0.3 mm 2 mps 707 mmHg 44%
    16:00 +38°C° 0.3 mm 2 mps 706 mmHg 45%
    17:00 +38°C° 0.3 mm 2 mps 706 mmHg 46%
    18:00 +37°C° 0 mm 2 mps 706 mmHg 49%
    19:00 +36°C° 0 mm 2 mps 706 mmHg 52%
    20:00 +35°C° 0 mm 2 mps 707 mmHg 55%
    21:00 +35°C° 0.5 mm 2 mps 707 mmHg 57%
    22:00 +34°C° 0.5 mm 3 mps 707 mmHg 59%
    23:00 +33°C° 0.5 mm 3 mps 707 mmHg 61%

    20 July, Saturday

    Time Temperature Precipitation Wind Pressure Humidity
    00:00 +33°C° 0.3 mm 3 mps 707 mmHg 62%
    01:00 +31°C° 0.3 mm 3 mps 707 mmHg 63%
    02:00 +31°C° 0.3 mm 3 mps 706 mmHg 65%
    03:00 +31°C° 1.5 mm 3 mps 706 mmHg 67%
    04:00 +30°C° 1.5 mm 2 mps 706 mmHg 68%
    05:00 +30°C° 1.5 mm 2 mps 706 mmHg 70%
    06:00 +30°C° 1.5 mm 2 mps 707 mmHg 70%
    07:00 +31°C° 1.5 mm 2 mps 707 mmHg 69%
    08:00 +31°C° 1.5 mm 2 mps 707 mmHg 68%
    09:00 +32°C° 1.6 mm 2 mps 707 mmHg 67%
    10:00 +32°C° 1.6 mm 2 mps 708 mmHg 66%
    11:00 +34°C° 1.6 mm 3 mps 708 mmHg 65%
    12:00 +35°C° 0.3 mm 3 mps 708 mmHg 60%
    13:00 +36°C° 0.3 mm 3 mps 707 mmHg 54%
    14:00 +38°C° 0.3 mm 3 mps 707 mmHg 48%
    15:00 +38°C° 0.1 mm 2 mps 707 mmHg 48%
    16:00 +38°C° 0.1 mm 2 mps 706 mmHg 47%
    17:00 +37°C° 0.1 mm 1 mps 706 mmHg 46%
    18:00 +37°C° 0 mm 2 mps 706 mmHg 50%
    19:00 +36°C° 0 mm 2 mps 706 mmHg 53%
    20:00 +35°C° 0 mm 2 mps 706 mmHg 56%
    21:00 +35°C° 0 mm 2 mps 706 mmHg 58%
    22:00 +34°C° 0 mm 2 mps 706 mmHg 60%
    23:00 +34°C° 0 mm 3 mps 706 mmHg 62%

    21 July, Sunday

    Time Temperature Precipitation Wind Pressure Humidity
    00:00 +34°C° 0 mm 2 mps 706 mmHg 62%
    01:00 +32°C° 0 mm 2 mps 705 mmHg 63%
    02:00 +32°C° 0 mm 2 mps 705 mmHg 63%
    03:00 +32°C° 0.5 mm 2 mps 705 mmHg 64%
    04:00 +32°C° 0.5 mm 2 mps 705 mmHg 66%
    05:00 +31°C° 0.5 mm 3 mps 705 mmHg 67%
    06:00 +31°C° 0.4 mm 2 mps 705 mmHg 67%
    07:00 +31°C° 0.4 mm 2 mps 705 mmHg 68%
    08:00 +32°C° 0.4 mm 2 mps 705 mmHg 68%
    09:00 +34°C° 0.1 mm 2 mps 706 mmHg 64%
    10:00 +35°C° 0.1 mm 3 mps 706 mmHg 60%
    11:00 +36°C° 0.1 mm 3 mps 706 mmHg 56%
    12:00 +37°C° 0.2 mm 3 mps 706 mmHg 52%
    13:00 +38°C° 0.2 mm 3 mps 705 mmHg 49%
    14:00 +39°C° 0.2 mm 3 mps 705 mmHg 46%
    15:00 +39°C° 0.2 mm 3 mps 705 mmHg 45%
    16:00 +39°C° 0.2 mm 3 mps 704 mmHg 45%
    17:00 +39°C° 0.2 mm 3 mps 704 mmHg 44%
    18:00 +38°C° 0 mm 3 mps 704 mmHg 48%
    19:00 +37°C° 0 mm 3 mps 704 mmHg 52%
    20:00 +35°C° 0 mm 3 mps 704 mmHg 56%
    21:00 +35°C° 0 mm 3 mps 704 mmHg 56%
    22:00 +35°C° 0 mm 3 mps 704 mmHg 56%
    23:00 +34°C° 0 mm 3 mps 704 mmHg 57%

    22 July, Monday

    Time Temperature Precipitation Wind Pressure Humidity
    00:00 +34°C° 0 mm 3 mps 704 mmHg 57%
    01:00 +34°C° 0 mm 3 mps 704 mmHg 57%
    02:00 +34°C° 0 mm 2 mps 703 mmHg 58%
    03:00 +34°C° 0.1 mm 2 mps 703 mmHg 58%
    04:00 +34°C° 0.1 mm 2 mps 704 mmHg 59%
    05:00 +34°C° 0.1 mm 2 mps 704 mmHg 59%
    06:00 +34°C° 0.1 mm 3 mps 704 mmHg 59%
    07:00 +34°C° 0.1 mm 3 mps 705 mmHg 58%
    08:00 +35°C° 0.1 mm 4 mps 705 mmHg 57%
    09:00 +36°C° 0 mm 4 mps 705 mmHg 53%
    10:00 +37°C° 0 mm 4 mps 705 mmHg 48%
    11:00 +40°C° 0 mm 4 mps 705 mmHg 44%
    12:00 +41°C° 0.1 mm 4 mps 705 mmHg 42%
    13:00 +41°C° 0.1 mm 4 mps 705 mmHg 39%
    14:00 +42°C° 0.1 mm 3 mps 704 mmHg 37%
    15:00 +42°C° 0 mm 3 mps 704 mmHg 37%
    16:00 +41°C° 0 mm 2 mps 703 mmHg 37%
    17:00 +41°C° 0 mm 2 mps 703 mmHg 36%
    18:00 +40°C° 0 mm 2 mps 703 mmHg 41%
    19:00 +38°C° 0 mm 3 mps 702 mmHg 46%
    20:00 +36°C° 0 mm 3 mps 702 mmHg 50%
    21:00 +36°C° 0 mm 3 mps 702 mmHg 51%
    22:00 +36°C° 0 mm 3 mps 702 mmHg 52%
    23:00 +35°C° 0 mm 3 mps 702 mmHg 53%
    Show more